Change the Weather History Date:

Monday, January 27, 2014

  Actual Average Record
Temperature  
Mean Temperature 54 °F 49 °F  
Max Temperature 66 °F 63 °F 75 °F (2003)
Min Temperature 42 °F 35 °F 19 °F (1979)
Degree Days  
Heating Degree Days 11 16  
Month to date heating degree days 313 443  
Since 1 July heating degree days 1436 1549  
Cooling Degree Days 0 0  
Month to date cooling degree days 0 0  
Year to date cooling degree days 0 0  
Growing Degree Days 4 (Base 50)    
Moisture  
Dew Point 45 °F    
Average Humidity 74    
Maximum Humidity 96    
Minimum Humidity 52    
Precipitation  
Precipitation 0.00 in 0.09 in 1.62 in (2008)
Month to date precipitation 0.00 2.59  
Year to date precipitation 0.00 2.59  
Since 1 July precipitation 4.19  
Snow  
Snow 0.00 in - - ()
Month to date snowfall 0.0  
Year to date snowfall 0.0  
Since 1 July snowfall 0.0  
Snow Depth 0.00 in    
Sea Level Pressure  
Sea Level Pressure 29.98 in    
Wind  
Wind Speed 6 mph (SW)    
Max Wind Speed 17 mph    
Max Gust Speed 20 mph    
T = Trace of Precipitation, MM = Missing Value Source: NWS Daily Summary

Daily Weather History Graph

Daily Weather History Graph

Search for Another Location

Airport or City:

Trip Planner

Search our weather history database for the weather conditions in past years. The results will help you decide how hot, cold, wet, or windy it might be!

Date:

Astronomy

Jan. 27, 2014 Rise Set
Actual Time 6:43 AM PST 5:14 PM PST
Civil Twilight 6:17 AM PST 5:40 PM PST
Nautical Twilight 5:47 AM PST 6:09 PM PST
Astronomical Twilight 5:18 AM PST 6:39 PM PST
Moon 3:27 AM PST (1/27) 2:07 PM PST (1/27)
Length of Visible Light 11h 22m
Length of Day
10h 30m
Waning Crescent, 14% of the Moon is Illuminated
Jan 27
Waning Crescent
Jan 30
New
Feb 6
First Quarter
Feb 14
Full
Feb 22
Last Quarter

Hourly Weather History & Observations

Time (PST) Temp. Windchill Dew Point Humidity Pressure Visibility Wind Dir Wind Speed Gust Speed Precip Events Conditions
12:52 AM 52.0 °F - 44.1 °F 74% 29.97 in - Calm Calm - N/A   Unknown
1:52 AM 51.1 °F - 46.9 °F 86% 29.98 in - Calm Calm - N/A   Unknown
2:52 AM 51.1 °F - 46.9 °F 86% 29.97 in - SSW 5.8 mph - N/A   Unknown
3:52 AM 50.0 °F - 46.9 °F 89% 29.97 in - SSW 3.5 mph - N/A   Unknown
4:52 AM 46.9 °F - 45.0 °F 93% 29.95 in - NNW 4.6 mph - N/A   Unknown
5:52 AM 43.0 °F 41.3 °F 41.0 °F 93% 29.96 in - NE 3.5 mph - N/A   Unknown
6:52 AM 43.0 °F 39.5 °F 41.0 °F 93% 30.00 in - NE 5.8 mph - N/A   Unknown
7:52 AM 46.0 °F - 45.0 °F 96% 30.01 in - Calm Calm - N/A   Unknown
8:52 AM 54.0 °F - 46.9 °F 77% 30.01 in - Variable 3.5 mph - N/A   Unknown
9:52 AM 59.0 °F - 48.0 °F 67% 30.03 in - West 10.4 mph - N/A   Unknown
10:52 AM 60.1 °F - 48.0 °F 64% 30.00 in - SSW 10.4 mph - N/A   Unknown
11:52 AM 62.1 °F - 48.0 °F 60% 29.97 in - SSW 13.8 mph - N/A   Unknown
12:52 PM 63.0 °F - 48.0 °F 58% 29.95 in - SW 12.7 mph - N/A   Unknown
1:52 PM 63.0 °F - 46.9 °F 56% 29.94 in - West 8.1 mph 18.4 mph N/A   Unknown
2:52 PM 64.9 °F - 46.0 °F 50% 29.93 in - WNW 8.1 mph - N/A   Unknown
3:52 PM 64.0 °F - 46.9 °F 54% 29.93 in - SSW 13.8 mph - N/A   Unknown
4:52 PM 60.1 °F - 48.0 °F 64% 29.95 in - SW 11.5 mph - N/A   Unknown
5:52 PM 55.0 °F - 46.9 °F 74% 29.99 in - SW 8.1 mph - N/A   Unknown
6:52 PM 52.0 °F - 45.0 °F 77% 30.01 in - Calm Calm - N/A   Unknown
7:52 PM 46.0 °F 43.9 °F 42.1 °F 86% 30.02 in - ENE 4.6 mph - N/A   Unknown
8:52 PM 46.0 °F 43.1 °F 42.1 °F 86% 30.01 in - NE 5.8 mph - N/A   Unknown
9:52 PM 43.0 °F 38.2 °F 39.9 °F 89% 30.03 in - ENE 8.1 mph - N/A   Unknown
10:52 PM 43.0 °F 40.3 °F 39.9 °F 89% 30.02 in - NE 4.6 mph - N/A   Unknown
11:52 PM 37.9 °F 34.4 °F 36.0 °F 93% 30.02 in - NE 4.6 mph - N/A   Unknown